Location: Unspecified
(0.0000°N, 0.0000°E)
Time: 20:29:07
(UTC+00:00)

Transit 2A - Pass Details

Date: 05 October 2020
Orbit: 592 x 966 km, 66.7° (Epoch: 20 October)

Event Time Altitude Azimuth Distance (km) Brightness Sun altitude
Rises 04:08:32 0° 175° (S) 3,273 9.4 -24.9°
Reaches altitude 10° 04:11:18 10° 161° (SSE) 2,409 8.8 -24.2°
Maximum altitude 04:15:45 24° 108° (ESE) 1,707 8.5 -23.1°
Drops below altitude 10° 04:20:29 10° 56° (NE) 2,586 9.4 -21.9°
Sets 04:23:33 0° 43° (NE) 3,571 10.0 -21.1°
